• Join FlightAware (Why Join?)
  • Login
  • US Flag 
11:06PM EST


 

Airport Tracker/Info


-or-


 

Live Flight TrackerFlight Track Log ✈ SKW4664 ✈ 21-Jul-2013 ✈ KMSP - KFSD

Flight Track Log - Related Links

Times and Time Zones

All times are in EDT time to prevent confusion due to time zone crossing. See the SKW4664 flight status page for this flight to view local times or setup timezone preferences in your user account.

Time Position Orientation Groundspeed Altitude Reporting Facility
EDT Latitude Longitude Course Direction KTS MPH feet Rate Location/Type
11:15AM 44.8333 -93.2500 235° Southwest 188 216 2,700  Level Minneapolis TRACON
11:16AM 44.7597 -93.3139 212° Southwest 247 284 6,200 2,584 Climbing Minneapolis Center
11:17AM 44.6748 -93.6505 235° Southwest  Level FlightAware Approximate
11:17AM 44.7378 -93.3889 248° West 266 306 8,600  Level Minneapolis Center
11:18AM 44.6013 -93.7974 235° Southwest  Level FlightAware Approximate
11:18AM 44.6992 -93.5017 244° Southwest 269 310 11,800  Level Minneapolis Center
11:19AM 44.5178 -93.9315 230° Southwest  Level FlightAware Approximate
11:19AM 44.6628 -93.6103 245° Southwest 311 358 13,300  Level Minneapolis Center
11:20AM 44.4444 -94.0780 235° Southwest  Level FlightAware Approximate
11:21AM 44.6228 -93.7269 244° Southwest 333 383 15,200  Level Minneapolis Center
11:22AM 44.5750 -93.8708 245° Southwest 340 391 17,500 2,032 Climbing Minneapolis Center
11:23AM 44.5358 -93.9911 245° Southwest 339 390 19,400 1,597 Climbing Minneapolis Center
11:24AM 44.4967 -94.1131 246° West 342 394 20,800 1,258 Climbing Minneapolis Center
11:25AM 44.4553 -94.2392 245° Southwest 353 406 22,000 581 Climbing Minneapolis Center
11:26AM 44.4106 -94.3739 245° Southwest 376 433 22,000  Level Minneapolis Center
11:27AM 44.3517 -94.5486 245° Southwest 414 476 22,000  Level Minneapolis Center
11:28AM 44.3058 -94.6867 245° Southwest 425 489 22,000  Level Minneapolis Center
11:29AM 44.2528 -94.8389 244° Southwest 433 498 22,000  Level Minneapolis Center
11:30AM 44.2022 -94.9883 245° Southwest 428 493 22,000 -581 Level Minneapolis Center
11:31AM 44.1406 -95.1661 244° Southwest 426 490 20,800 -1,306 Descending Minneapolis Center
11:32AM 44.0903 -95.3133 245° Southwest 422 486 19,300 -1,452 Descending Minneapolis Center
11:33AM 44.0392 -95.4592 244° Southwest 419 482 17,800 -1,584 Descending Minneapolis Center
11:34AM 43.9897 -95.5997 244° Southwest 409 471 16,000 -1,824 Descending Minneapolis Center
11:35AM 43.9486 -95.7206 245° Southwest 359 413 14,000 -1,935 Descending Minneapolis Center
11:36AM 43.9050 -95.8431 244° Southwest 352 405 12,000 -1,742 Descending Minneapolis Center
11:37AM 43.8619 -95.9642 244° Southwest 351 404 10,400 -1,742 Descending Minneapolis Center
11:38AM 43.8236 -96.0856 246° West 306 352 8,400 -1,306 Descending Minneapolis Center
11:39AM 43.7942 -96.1875 248° West 291 335 7,700 -1,016 Descending Minneapolis Center
11:40AM 43.7661 -96.2881 249° West 285 328 6,300 -1,161 Descending Minneapolis Center
11:41AM 43.7386 -96.3886 249° West 281 323 5,300 -919 Descending Minneapolis Center
11:42AM 43.7133 -96.4867 250° West 277 319 4,400 -871 Descending Minneapolis Center
11:43AM 43.6886 -96.5814 250° West 270 311 3,500 -871 Descending Minneapolis Center